Weather History for Baker, OR

Change the Weather History Date:

Wednesday, December 12, 2012

  Actual Average Record
Temperature  
Mean Temperature 28 °F 25 °F  
Max Temperature 39 °F 34 °F 60 °F (1995)
Min Temperature 17 °F 16 °F -9 °F (1972)
Degree Days  
Heating Degree Days 37 40  
Month to date heating degree days 378 468  
Since 1 July heating degree days 2181 2505  
Cooling Degree Days 0 0  
Month to date cooling degree days 0 0  
Year to date cooling degree days 184 169  
Moisture  
Dew Point 26 °F    
Average Humidity 88    
Maximum Humidity 100    
Minimum Humidity 76    
Precipitation  
Precipitation 0.04 in 0.03 in 0.52 in (1995)
Month to date precipitation 0.80 0.38  
Year to date precipitation 8.24 9.53  
Sea Level Pressure  
Sea Level Pressure 29.77 in    
Wind  
Wind Speed 3 mph (North)    
Max Wind Speed 17 mph    
Max Gust Speed 20 mph    
Visibility 3 miles    
Events Fog , Snow    
T = Trace of Precipitation, MM = Missing Value Source: NWS Daily Summary

Daily Weather History Graph

Daily Weather History Graph

Search for Another Location

Airport:

Trip Planner

Search our weather history database for the weather conditions in past years. The results will help you decide how hot, cold, wet, or windy it might be!

Date:

Astronomy

Dec. 12, 2012 Rise Set
Actual Time 7:20 AM PST 4:10 PM PST
Civil Twilight 6:46 AM PST 4:43 PM PST
Nautical Twilight 6:09 AM PST 5:20 PM PST
Astronomical Twilight 5:33 AM PST 5:56 PM PST
Moon 6:28 AM PST (12/12) 3:53 PM PST (12/12)
Length of Visible Light 9h 57m
Length of Day
8h 50m
Waning Crescent, 0% of the Moon is Illuminated
Dec 12
Waning Crescent
Dec 13
New
Dec 19
First Quarter
Dec 28
Full
Jan 4
Last Quarter

Hourly Weather History & Observations

Time (PST) Temp. Windchill Dew Point Humidity Pressure Visibility Wind Dir Wind Speed Gust Speed Precip Events Conditions
12:53 AM 28.0 °F - 26.1 °F 92% 29.64 in 8.0 mi Calm Calm - N/A   Overcast
1:38 AM 28.4 °F - 26.6 °F 93% 29.59 in 2.0 mi Calm Calm - 0.00 in Snow Light Snow
1:44 AM 28.4 °F - 26.6 °F 93% 29.59 in 1.8 mi Calm Calm - 0.00 in Snow Light Snow
1:53 AM 28.9 °F 25.2 °F 27.0 °F 92% 29.65 in 1.2 mi SSE 3.5 mph - 0.00 in Snow Light Snow
2:19 AM 28.4 °F 24.6 °F 28.4 °F 100% 29.58 in 2.5 mi SSE 3.5 mph - 0.00 in Snow Light Snow
2:30 AM 30.2 °F 26.7 °F 28.4 °F 93% 29.59 in 2.0 mi South 3.5 mph - 0.00 in Snow Light Snow
2:38 AM 30.2 °F - 28.4 °F 93% 29.60 in 2.5 mi Calm Calm - 0.00 in Snow Light Snow
2:53 AM 30.0 °F - 28.9 °F 96% 29.66 in 2.0 mi Calm Calm - 0.00 in Snow Light Snow
3:07 AM 30.2 °F - 28.4 °F 93% 29.60 in 3.0 mi Calm Calm - 0.00 in Snow Light Snow
3:43 AM 30.2 °F - 28.4 °F 93% 29.60 in 2.5 mi Calm Calm - 0.00 in Snow Light Snow
3:53 AM 30.0 °F - 28.9 °F 96% 29.66 in 3.0 mi Calm Calm - 0.00 in   Overcast
4:07 AM 30.2 °F - 28.4 °F 93% 29.60 in 4.0 mi Calm Calm - N/A   Overcast
4:34 AM 30.2 °F 26.7 °F 28.4 °F 93% 29.61 in 3.0 mi North 3.5 mph - 0.00 in   Overcast
4:53 AM 30.0 °F - 28.9 °F 96% 29.67 in 2.5 mi Calm Calm - 0.00 in Snow Light Snow
5:20 AM 30.2 °F - 28.4 °F 93% 29.62 in 3.0 mi Calm Calm - 0.00 in Snow Light Snow
5:36 AM 28.4 °F - 28.4 °F 100% 29.62 in 4.0 mi Calm Calm - 0.00 in   Overcast
5:53 AM 28.9 °F - 28.0 °F 96% 29.70 in 4.0 mi Calm Calm - 0.00 in   Overcast
6:03 AM 28.4 °F - 28.4 °F 100% 29.63 in 4.0 mi Calm Calm - N/A   Overcast
6:12 AM 28.4 °F - 28.4 °F 100% 29.64 in 4.0 mi Calm Calm - N/A   Overcast
6:33 AM 28.4 °F - 28.4 °F 100% 29.64 in 3.0 mi Calm Calm - N/A   Overcast
6:53 AM 28.0 °F - 27.0 °F 96% 29.72 in 4.0 mi Calm Calm - N/A   Overcast
7:37 AM 28.4 °F - 26.6 °F 93% 29.67 in 2.5 mi Calm Calm - N/A   Overcast
7:44 AM 28.4 °F 24.6 °F 26.6 °F 93% 29.67 in 3.0 mi ESE 3.5 mph - N/A   Overcast
7:53 AM 28.0 °F 24.2 °F 27.0 °F 96% 29.75 in 3.0 mi ENE 3.5 mph - N/A   Overcast
7:57 AM 28.4 °F 24.6 °F 26.6 °F 93% 29.67 in 2.0 mi ENE 3.5 mph - N/A   Overcast
8:01 AM 28.4 °F - 26.6 °F 93% 29.68 in 0.8 mi Calm Calm - N/A   Overcast
8:17 AM 28.4 °F 24.6 °F 26.6 °F 93% 29.68 in 1.0 mi NNE 3.5 mph - N/A   Overcast
8:29 AM 28.4 °F 23.3 °F 26.6 °F 93% 29.69 in 1.8 mi NNE 4.6 mph - N/A   Overcast
8:43 AM 28.4 °F 22.2 °F 28.4 °F 100% 29.70 in 2.0 mi North 5.8 mph - N/A   Overcast
8:53 AM 30.0 °F 23.2 °F 28.9 °F 96% 29.78 in 2.5 mi NW 6.9 mph - N/A   Overcast
8:57 AM 30.2 °F 23.4 °F 28.4 °F 93% 29.71 in 3.0 mi NW 6.9 mph - N/A   Overcast
9:28 AM 33.8 °F - 30.2 °F 87% 29.72 in 10.0 mi Calm Calm - 0.03 in   Overcast
9:53 AM 34.0 °F 31.0 °F 30.0 °F 85% 29.79 in 10.0 mi NE 3.5 mph - 0.03 in   Overcast
10:53 AM 32.0 °F 28.7 °F 30.9 °F 96% 29.82 in 5.0 mi SSW 3.5 mph - N/A   Overcast
11:53 AM 36.0 °F - 32.0 °F 86% 29.81 in 10.0 mi Calm Calm - N/A   Mostly Cloudy
12:53 PM 37.0 °F - 30.0 °F 76% 29.81 in 10.0 mi Calm Calm - N/A   Overcast
1:53 PM 32.0 °F 22.1 °F 30.0 °F 92% 29.83 in 6.0 mi NW 13.8 mph - 0.00 in Snow Light Snow
2:08 PM 32.0 °F 21.6 °F 30.2 °F 93% 29.76 in 1.8 mi NW 15.0 mph - 0.00 in Snow Light Snow
2:22 PM 32.0 °F 24.2 °F 30.2 °F 93% 29.77 in 0.8 mi North 9.2 mph - 0.00 in Snow Light Snow
2:34 PM 33.8 °F 27.0 °F 30.2 °F 87% 29.77 in 2.0 mi North 8.1 mph - 0.00 in Snow Light Snow
2:38 PM 33.8 °F 26.4 °F 30.2 °F 87% 29.77 in 7.0 mi North 9.2 mph - 0.00 in Snow Light Snow
2:53 PM 32.0 °F 25.6 °F 28.9 °F 88% 29.85 in 10.0 mi NNE 6.9 mph - 0.00 in   Scattered Clouds
3:53 PM 28.0 °F 24.2 °F 28.0 °F 100% 29.88 in 10.0 mi South 3.5 mph - 0.01 in   Partly Cloudy
4:28 PM 28.4 °F - 26.6 °F 93% 29.82 in 1.8 mi Calm Calm - N/A   Mostly Cloudy
4:53 PM 28.0 °F 24.2 °F 26.1 °F 92% 29.90 in 2.0 mi WSW 3.5 mph - N/A   Overcast
5:01 PM 28.4 °F - 26.6 °F 93% 29.83 in 10.0 mi Calm Calm - N/A   Overcast
5:16 PM 26.6 °F - 24.8 °F 93% 29.83 in 1.8 mi Calm Calm - N/A   Overcast
5:41 PM 26.6 °F - 26.6 °F 100% 29.84 in 0.5 mi Calm Calm - N/A Fog Light Freezing Fog
5:49 PM 26.6 °F - 26.6 °F 100% 29.84 in 0.2 mi Calm Calm - N/A Fog Light Freezing Fog
5:50 PM 26.1 °F - 26.1 °F 100% 29.92 in 0.2 mi Calm Calm - N/A Fog Light Freezing Fog
6:00 PM 26.6 °F - 24.8 °F 93% 29.84 in 0.5 mi Calm Calm - N/A Fog Light Freezing Fog
6:21 PM 26.6 °F 22.6 °F 24.8 °F 93% 29.84 in 0.2 mi NNW 3.5 mph - N/A Fog Light Freezing Fog
6:31 PM 26.6 °F 22.6 °F 24.8 °F 93% 29.85 in 0.2 mi NNW 3.5 mph - N/A Fog Light Freezing Fog
6:53 PM 23.0 °F 15.8 °F 21.9 °F 96% 29.94 in 0.2 mi NW 5.8 mph - N/A Fog Light Freezing Fog
7:10 PM 23.0 °F - 21.2 °F 93% 29.86 in 0.5 mi Calm Calm - N/A Fog Light Freezing Fog
7:22 PM 24.8 °F - 23.0 °F 93% 29.86 in 0.2 mi Calm Calm - N/A Fog Light Freezing Fog
7:29 PM 24.8 °F - 23.0 °F 93% 29.86 in 0.2 mi Calm Calm - N/A Fog Light Freezing Fog
7:53 PM 26.1 °F 21.9 °F 24.1 °F 92% 29.96 in 0.2 mi SSE 3.5 mph - N/A Fog Light Freezing Fog
8:03 PM 26.6 °F 21.2 °F 24.8 °F 93% 29.87 in 0.5 mi SSE 4.6 mph - N/A Fog Light Freezing Fog
8:18 PM 26.6 °F 22.6 °F 23.0 °F 86% 29.87 in 1.2 mi SSE 3.5 mph - N/A   Overcast
8:25 PM 24.8 °F - 23.0 °F 93% 29.88 in 0.8 mi Calm Calm - N/A   Mist
8:37 PM 24.8 °F - 23.0 °F 93% 29.88 in 0.2 mi Calm Calm - N/A Fog Light Freezing Fog
8:53 PM 25.0 °F 20.7 °F 21.0 °F 85% 29.96 in 0.2 mi NNE 3.5 mph - N/A Fog Light Freezing Fog
9:53 PM 21.9 °F - 19.0 °F 89% 29.98 in 0.2 mi Calm Calm - N/A Fog Light Freezing Fog
10:15 PM 21.2 °F 16.4 °F 17.6 °F 86% 29.90 in 0.2 mi WNW 3.5 mph - N/A Fog Light Freezing Fog
10:27 PM 19.4 °F - 17.6 °F 93% 29.90 in 0.2 mi Calm Calm - N/A Fog Light Freezing Fog
10:53 PM 19.9 °F 14.9 °F 18.0 °F 92% 30.00 in 0.2 mi SSE 3.5 mph - N/A Fog Light Freezing Fog
11:29 PM 19.4 °F - 15.8 °F 86% 29.92 in 1.0 mi Calm Calm - N/A   Mist
11:41 PM 17.6 °F - 14.0 °F 86% 29.92 in 0.8 mi Calm Calm - N/A   Mist
11:53 PM 18.0 °F - 14.0 °F 84% 30.01 in 0.5 mi Calm Calm - N/A Fog Light Freezing Fog